Back to catalog

COSMOS 1275 DEB

AlivePO
NORAD 42175·DEBRIS·🇷🇺 Russia

Launched Jun 4, 1981 from Plesetsk Cosmodrome

Loading…

Next Passes (next 24 hours)

TLE

AgingSource: Space-Track

Epoch: Sep 4, 2026, 22:11 UTC

1 42175U 81053SP  26247.92484987  .00000079  00000-0  96603-4 0  9992
2 42175  83.0303 129.1124 0140251  10.6565 359.9821 13.49762301630062

Track COSMOS 1275 DEB in real time with AllMySat

Download on the App Store